EW3148 Weather Reports


time (UTC)temp
F
wind
direction
speed
knots
gust
knots
rain 1hr
in
rain 24hr
in
rain mn
in
humidity
%
barometer
mb
20260831200125 98 184 3.5 10.4 0.00 0.00 0.00 40 1012.5
20260831192916 97 123 3.5 11.3 0.00 0.00 0.00 44 1012.9
20260831191918 96 175 3.5 8.7 0.00 0.00 0.00 46 1013.0
20260831190900 96 147 4.3 13.0 0.00 0.00 0.00 47 1013.1
20260831185839 95 182 4.3 9.6 0.00 0.00 0.00 48 1013.3
20260831184805 94 171 2.6 9.6 0.00 0.00 0.00 50 1013.4
20260831182652 94 207 3.5 10.4 0.00 0.00 0.00 51 1013.6
20260831181620 94 97 2.6 7.8 0.00 0.00 0.00 50 1013.6
20260831180617 94 151 2.6 8.7 0.00 0.00 0.00 51 1013.7
20260831175548 94 134 1.7 9.6 0.00 0.00 0.00 52 1013.9
20260831174610 93 235 3.5 9.6 0.00 0.00 0.00 52 1014.0
20260831173541 93 216 2.6 7.8 0.00 0.00 0.00 51 1014.1
20260831172549 93 238 2.6 8.7 0.00 0.00 0.00 53 1014.2
20260831170424 92 180 2.6 8.7 0.00 0.00 0.00 58 1014.4
20260831165407 91 183 3.5 11.3 0.00 0.00 0.00 57 1014.4
20260831164425 91 179 3.5 11.3 0.00 0.00 0.00 58 1014.4
20260831163356 91 202 2.6 7.8 0.00 0.00 0.00 57 1014.4
20260831162356 90 182 2.6 7.8 0.00 0.00 0.00 58 1014.4
20260831161347 89 215 1.7 8.7 0.00 0.00 0.00 64 1014.4
20260831160326 88 192 3.5 10.4 0.00 0.00 0.00 65 1014.3
20260831155333 88 186 2.6 10.4 0.00 0.00 0.00 63 1014.4
20260831154338 88 218 2.6 7.8 0.00 0.00 0.00 65 1014.4
20260831153343 87 186 2.6 8.7 0.00 0.00 0.00 68 1014.2
20260831152335 87 196 3.5 9.6 0.00 0.00 0.00 69 1014.0
20260831151400 87 153 2.6 9.6 0.00 0.00 0.00 71 1014.0
20260831150336 86 164 1.7 9.6 0.00 0.00 0.00 73 1014.0
20260831145352 85 223 3.5 9.6 0.00 0.00 0.00 74 1014.0
20260831144416 84 186 2.6 9.6 0.00 0.00 0.00 77 1013.9
20260831143412 84 151 2.6 9.6 0.00 0.00 0.00 79 1013.8
20260831142345 83 192 2.6 7.8 0.00 0.00 0.00 79 1013.8
20260831141330 82 182 1.7 6.1 0.00 0.00 0.00 82 1013.8
20260831140300 81 232 1.7 6.1 0.00 0.00 0.00 83 1013.5
20260831135226 81 205 1.7 6.1 0.00 0.00 0.00 85 1013.5
20260831134241 80 192 1.7 6.1 0.00 0.00 0.00 87 1013.5
20260831133303 79 198 0.9 5.2 0.00 0.00 0.00 89 1013.4
20260831131054 78 184 0.9 4.3 0.00 0.00 0.00 92 1013.4
20260831130054 77 176 0.9 3.5 0.00 0.00 0.00 92 1013.1
20260831125026 77 194 0.9 4.3 0.00 0.00 0.00 92 1013.1
20260831124029 77 196 1.7 4.3 0.00 0.00 0.00 92 1013.0
20260831123026 77 196 1.7 3.5 0.00 0.00 0.00 91 1013.0
20260831120850 77 188 0.9 3.5 0.00 0.00 0.00 91 1013.0
20260831115856 78 210 0.9 5.2 0.00 0.00 0.00 90 1012.9
20260831114910 78 200 0.9 6.1 0.00 0.00 0.00 90 1012.8
20260831113844 78 174 1.7 6.1 0.00 0.00 0.00 90 1012.9
20260831112821 78 212 1.7 5.2 0.00 0.00 0.00 90 1012.8
20260831111814 78 198 1.7 5.2 0.00 0.00 0.00 89 1012.8
20260831105634 78 213 1.7 8.7 0.00 0.00 0.00 90 1012.6
20260831104656 78 178 1.7 8.7 0.00 0.00 0.00 90 1012.7
20260831103701 78 176 1.7 5.2 0.00 0.00 0.00 90 1012.7
20260831102707 77 190 2.6 7.0 0.00 0.00 0.00 90 1012.6
20260831101701 77 208 2.6 7.0 0.00 0.00 0.00 89 1012.6
20260831100644 77 199 2.6 7.0 0.00 0.00 0.00 89 1012.6
20260831095700 77 200 1.7 7.0 0.00 0.00 0.00 89 1012.7
20260831094633 77 215 1.7 5.2 0.00 0.00 0.00 89 1012.7
20260831093604 77 157 2.6 7.0 0.00 0.00 0.00 88 1012.6
20260831092617 77 169 1.7 10.4 0.00 0.00 0.00 88 1012.6
20260831091616 77 196 2.6 10.4 0.00 0.00 0.00 88 1012.5
20260831080834 78 169 2.6 7.0 0.00 0.00 0.00 84 1012.7
20260831075826 78 161 2.6 7.0 0.00 0.00 0.00 83 1012.7
20260831074823 78 172 2.6 7.0 0.00 0.00 0.00 83 1012.7
20260831073827 79 219 2.6 7.8 0.00 0.00 0.00 82 1012.7
20260831071740 79 196 3.5 10.4 0.00 0.00 0.00 80 1012.8
20260831070717 79 186 3.5 8.7 0.00 0.00 0.00 80 1012.7
20260831065733 80 192 3.5 8.7 0.00 0.00 0.00 79 1012.7
20260831064720 80 224 3.5 7.8 0.00 0.00 0.00 78 1012.8
20260831063700 80 192 3.5 9.6 0.00 0.00 0.00 77 1012.9
20260831062626 81 166 3.5 9.6 0.00 0.00 0.00 76 1012.9
20260831061610 81 193 4.3 9.6 0.00 0.00 0.00 75 1012.8
20260831060613 81 198 4.3 9.6 0.00 0.00 0.00 74 1012.7
20260831055545 81 184 4.3 8.7 0.00 0.00 0.00 73 1012.7
20260831054601 82 207 4.3 9.6 0.00 0.00 0.00 73 1012.7
20260831053542 82 174 4.3 9.6 0.00 0.00 0.00 73 1012.5
20260831052531 82 162 4.3 9.6 0.00 0.00 0.00 73 1012.5
20260831051556 83 186 4.3 10.4 0.00 0.00 0.00 73 1012.4
20260831045330 84 192 3.5 13.0 0.00 0.00 0.00 71 1012.4
20260831044303 84 167 5.2 13.0 0.00 0.00 0.00 70 1012.4
20260831042131 85 171 4.3 9.6 0.00 0.00 0.00 68 1012.4
20260831034900 86 177 4.3 12.2 0.00 0.00 0.00 65 1012.2
20260831033839 86 164 3.5 8.7 0.00 0.00 0.00 63 1012.1
20260831032811 86 175 3.5 8.7 0.00 0.00 0.00 62 1011.9
20260831030714 87 194 2.6 9.6 0.00 0.00 0.00 61 1011.8
20260831025705 87 159 2.6 9.6 0.00 0.00 0.00 60 1011.5
20260831024726 88 173 3.5 7.8 0.00 0.00 0.00 59 1011.4
20260831023655 88 136 3.5 10.4 0.00 0.00 0.00 58 1011.2
20260831021546 89 157 2.6 7.0 0.00 0.00 0.00 55 1010.9
20260831015424 90 197 3.5 7.8 0.00 0.00 0.00 54 1010.5
20260831014435 90 176 2.6 8.7 0.00 0.00 0.00 53 1010.4
20260831013402 90 155 1.7 8.7 0.00 0.00 0.00 51 1010.2
20260831012343 91 138 0.9 2.6 0.00 0.00 0.00 49 1010.1
20260831010222 92 123 0.9 4.3 0.00 0.00 0.00 47 1010.0
20260831005207 93 140 0.9 6.1 0.00 0.00 0.00 46 1009.9
20260831004206 94 105 1.7 7.0 0.00 0.00 0.00 45 1010.0
20260831003203 94 195 1.7 7.0 0.00 0.00 0.00 43 1009.9
20260831002207 95 148 1.7 5.2 0.00 0.00 0.00 43 1009.8
20260831001137 95 179 2.6 6.1 0.00 0.00 0.00 42 1009.8
20260831000112 96 171 2.6 7.8 0.00 0.00 0.00 41 1009.8
20260830235048 97 165 2.6 7.0 0.00 0.00 0.00 40 1009.8
20260830234022 97 140 1.7 5.2 0.00 0.00 0.00 40 1010.0
20260830232951 97 160 2.6 7.8 0.00 0.00 0.00 39 1009.9
20260830231929 97 106 2.6 7.8 0.00 0.00 0.00 39 1009.9
20260830230912 98 107 3.5 9.6 0.00 0.00 0.00 39 1010.0
20260830225848 98 107 2.6 9.6 0.00 0.00 0.00 40 1010.1
20260830224910 98 109 1.7 6.1 0.00 0.00 0.00 40 1010.0
20260830223910 98 159 2.6 11.3 0.00 0.00 0.00 40 1010.1
20260830222916 98 180 2.6 11.3 0.00 0.00 0.00 40 1010.2
20260830221909 98 134 2.6 11.3 0.00 0.00 0.00 40 1010.2
20260830220847 97 186 4.3 11.3 0.00 0.00 0.00 40 1010.2
20260830215822 98 143 3.5 9.6 0.00 0.00 0.00 40 1010.4
20260830213727 98 112 2.6 10.4 0.00 0.00 0.00 41 1010.5
20260830212705 97 91 3.5 13.0 0.00 0.00 0.00 43 1010.7
20260830211727 97 211 4.3 13.0 0.00 0.00 0.00 43 1010.7
20260830210709 97 142 3.5 9.6 0.00 0.00 0.00 44 1011.0
20260830205723 97 163 3.5 8.7 0.00 0.00 0.00 44 1011.2
20260830202417 96 195 2.6 10.4 0.00 0.00 0.00 47 1011.6
20260830201439 97 138 4.3 10.4 0.00 0.00 0.00 45 1011.6